Weather History for Makassar, Indonesia

Change the Weather History Date:

Monday, October 8, 2012

  Actual Average Record
Temperature  
Mean Temperature 84 °F -  
Max Temperature 96 °F - - ()
Min Temperature 73 °F - - ()
Cooling Degree Days 20    
Growing Degree Days 34 (Base 50)    
Moisture  
Dew Point 72 °F    
Average Humidity 71    
Maximum Humidity 94    
Minimum Humidity 36    
Precipitation  
Precipitation 0.00 in - - ()
Sea Level Pressure  
Sea Level Pressure 29.82 in    
Wind  
Wind Speed 4 mph ()    
Max Wind Speed 14 mph    
Max Gust Speed -    
Visibility 5.4 miles    
Events      
T = Trace of Precipitation, MM = Missing Value Source: Averaged Metar Reports

Daily Weather History Graph

Daily Weather History Graph

Search for Another Location

Airport:

Trip Planner

Search our weather history database for the weather conditions in past years. The results will help you decide how hot, cold, wet, or windy it might be!

Date:

Astronomy

Oct. 08, 2012 Rise Set
Actual Time 5:43 AM WITA 5:54 PM WITA
Civil Twilight 5:23 AM WITA 6:15 PM WITA
Nautical Twilight 4:58 AM WITA 6:39 PM WITA
Astronomical Twilight 4:34 AM WITA 7:04 PM WITA
Moon No Moon Rise 11:42 AM WITA (10/8)
Length of Visible Light 12h 52m
Length of Day
12h 10m
Waning Gibbous, 51% of the Moon is Illuminated
Oct 8
Waning Gibbous
Oct 8
Last Quarter
Oct 15
New
Oct 22
First Quarter
Oct 30
Full

Hourly Weather History & Observations

Time (WITA) Temp. Heat Index Dew Point Humidity Pressure Visibility Wind Dir Wind Speed Gust Speed Precip Events Conditions
12:00 AM 78.8 °F - 75.2 °F 89% 29.83 in 5.0 mi Variable 1.2 mph - N/A   Partly Cloudy
12:30 AM 77.0 °F - 73.4 °F 89% 29.83 in 5.0 mi East 2.3 mph - N/A   Partly Cloudy
1:00 AM 77.0 °F - 73.4 °F 89% 29.80 in 5.0 mi East 2.3 mph - N/A   Partly Cloudy
1:30 AM 77.0 °F - 71.6 °F 83% 29.80 in 5.0 mi East 3.5 mph - N/A   Partly Cloudy
2:00 AM 76 °F - 73 °F 88% 29.81 in 5 mi ENE 2.3 mph - -   Scattered Clouds
2:00 AM 75.2 °F - 71.6 °F 89% 29.80 in 5.0 mi ENE 2.3 mph - N/A   Partly Cloudy
2:30 AM 75.2 °F - 71.6 °F 89% 29.80 in 5.0 mi East 2.3 mph - N/A   Partly Cloudy
3:00 AM 75.2 °F - 71.6 °F 89% 29.80 in 5.0 mi Variable 2.3 mph - N/A   Partly Cloudy
3:30 AM 75.2 °F - 71.6 °F 89% 29.80 in 5.0 mi Variable 2.3 mph - N/A   Partly Cloudy
4:00 AM 75.2 °F - 71.6 °F 89% 29.83 in 5.0 mi Variable 2.3 mph - N/A   Partly Cloudy
4:30 AM 75.2 °F - 71.6 °F 89% 29.83 in 5.0 mi Variable 1.2 mph - N/A   Partly Cloudy
5:00 AM - - - % 29.85 in 5 mi ENE 1.2 mph - -   Scattered Clouds
5:00 AM 73.4 °F - 71.6 °F 94% 29.83 in 5.0 mi ENE 1.2 mph - N/A   Partly Cloudy
5:30 AM 73.4 °F - 69.8 °F 88% 29.86 in 5.0 mi ESE 3.5 mph - N/A   Partly Cloudy
6:00 AM 73.4 °F - 69.8 °F 88% 29.86 in 5.6 mi East 3.5 mph - N/A   Partly Cloudy
6:30 AM 75.2 °F - 69.8 °F 83% 29.86 in 5.6 mi Variable 2.3 mph - N/A   Partly Cloudy
7:00 AM 78.8 °F - 69.8 °F 74% 29.89 in 5.6 mi Variable 2.3 mph - N/A   Partly Cloudy
7:30 AM 82.4 °F 87.2 °F 71.6 °F 70% 29.89 in 6.2 mi Variable 2.3 mph - N/A   Partly Cloudy
8:00 AM 87 °F - 72 °F 52% 29.90 in 6 mi SE 2.3 mph - -   Scattered Clouds
8:00 AM 86.0 °F 91.8 °F 71.6 °F 62% 29.89 in 6.2 mi Variable 2.3 mph - N/A   Partly Cloudy
8:30 AM 86.0 °F 91.8 °F 71.6 °F 62% 29.89 in 6.2 mi Variable 2.3 mph - N/A   Partly Cloudy
9:00 AM 87.8 °F 92.6 °F 69.8 °F 55% 29.89 in 6.2 mi Variable 2.3 mph - N/A   Partly Cloudy
9:30 AM 89.6 °F 94.7 °F 69.8 °F 52% 29.89 in 6.2 mi Variable 2.3 mph - N/A   Partly Cloudy
10:00 AM 91.4 °F 96.8 °F 69.8 °F 49% 29.86 in 6.2 mi NNE 5.8 mph - N/A   Partly Cloudy
10:30 AM 91.4 °F 98.4 °F 71.6 °F 52% 29.86 in 6.2 mi West 9.2 mph - N/A   Partly Cloudy
11:00 AM 92 °F - 71 °F 41% 29.86 in 6 mi WNW 9.2 mph - -   Scattered Clouds
11:00 AM 91.4 °F 98.4 °F 71.6 °F 52% 29.86 in 6.2 mi West 9.2 mph - N/A   Partly Cloudy
11:30 AM 93.2 °F 100.5 °F 71.6 °F 49% 29.86 in 6.2 mi West 11.5 mph - N/A   Partly Cloudy
12:00 PM 93.2 °F 98.8 °F 69.8 °F 46% 29.83 in 6.2 mi West 11.5 mph - N/A   Partly Cloudy
12:30 PM 93.2 °F 98.8 °F 69.8 °F 46% 29.80 in 6.2 mi WNW 10.4 mph - N/A   Partly Cloudy
1:00 PM 93.2 °F 98.8 °F 69.8 °F 46% 29.80 in 6.2 mi WNW 11.5 mph - N/A   Partly Cloudy
1:30 PM 93.2 °F 98.8 °F 69.8 °F 46% 29.77 in 6.2 mi WNW 11.5 mph - N/A   Partly Cloudy
2:00 PM 95 °F - 71 °F 36% 29.77 in 6 mi WNW 13.8 mph - -   Scattered Clouds
2:00 PM 93.2 °F 98.8 °F 69.8 °F 46% 29.77 in 5.6 mi WNW 13.8 mph - N/A   Partly Cloudy
2:30 PM 95.0 °F 103.2 °F 71.6 °F 47% 29.77 in 5.6 mi West 10.4 mph - N/A   Partly Cloudy
3:00 PM 93.2 °F 102.4 °F 73.4 °F 52% 29.74 in 5.6 mi West 12.7 mph - N/A   Partly Cloudy
3:30 PM 91.4 °F 100.1 °F 73.4 °F 55% 29.74 in 5.6 mi WSW 8.1 mph - N/A   Partly Cloudy
4:00 PM 91.4 °F 102.5 °F 75.2 °F 59% 29.74 in 5.6 mi SW 10.4 mph - N/A   Partly Cloudy
4:30 PM 91.4 °F 102.5 °F 75.2 °F 59% 29.74 in 5.0 mi SW 11.5 mph - N/A   Scattered Clouds
5:00 PM 85 °F - 71 °F 53% 29.77 in 5 mi ESE 11.5 mph - -   Partly Cloudy
5:00 PM 84.2 °F 89.6 °F 71.6 °F 66% 29.77 in 5.0 mi ESE 12.7 mph - N/A   Scattered Clouds
5:30 PM 82.4 °F 88.2 °F 73.4 °F 74% 29.77 in 5.0 mi East 8.1 mph - N/A   Scattered Clouds
6:00 PM 80.6 °F 85.4 °F 73.4 °F 79% 29.77 in 5.0 mi East 6.9 mph - N/A   Scattered Clouds
6:30 PM 80.6 °F 85.4 °F 73.4 °F 79% 29.80 in 5.0 mi East 4.6 mph - N/A   Scattered Clouds
7:00 PM 80.6 °F 85.4 °F 73.4 °F 79% 29.80 in 5.0 mi East 3.5 mph - N/A   Partly Cloudy
7:30 PM 80.6 °F 86.2 °F 75.2 °F 84% 29.80 in 5.0 mi Variable 2.3 mph - N/A   Partly Cloudy
8:00 PM 79 °F - 75 °F 84% 29.83 in 5 mi ESE 2.3 mph - -   Scattered Clouds
8:00 PM 80.6 °F 86.2 °F 75.2 °F 84% 29.83 in 5.0 mi ESE 2.3 mph - N/A   Partly Cloudy
8:30 PM 80.6 °F 85.4 °F 73.4 °F 79% 29.83 in 5.0 mi South 3.5 mph - N/A   Partly Cloudy
9:00 PM 80.6 °F 85.4 °F 73.4 °F 79% 29.83 in 5.0 mi Calm Calm - N/A   Partly Cloudy
9:30 PM 78.8 °F - 73.4 °F 83% 29.83 in 5.0 mi ESE 2.3 mph - N/A   Partly Cloudy
10:00 PM 78.8 °F - 75.2 °F 89% 29.83 in 5.0 mi ENE 2.3 mph - N/A   Partly Cloudy
10:30 PM 78.8 °F - 73.4 °F 83% 29.83 in 5.0 mi Variable 1.2 mph - N/A   Partly Cloudy
11:00 PM 78 °F - 74 °F 83% 29.83 in 5 mi Calm Calm - -   Scattered Clouds
11:00 PM 77.0 °F - 73.4 °F 89% 29.83 in 5.0 mi Calm Calm - N/A   Partly Cloudy
11:30 PM 77.0 °F - 71.6 °F 83% 29.80 in 5.0 mi SE 4.6 mph - N/A   Partly Cloudy